Location: Newark
(39.0622°N, 106.5590°E)
Time: 11:50:05
(UTC+00:00)

Altair - Visible Passes

Search period start: 27 January 2020 00:00
Search period end: 06 February 2020 00:00
Orbit: 1502 x 1682 km, 47.2° (Epoch: 26 January)

Date Brightness Start Highest point End Pass type
(mag) Time Alt. Az. Time Alt. Az. Time Alt. Az.
27 Jan 9.4 22:38:19 10° S 22:46:27 30° SE 22:54:44 10° ENE visible
28 Jan 9.4 22:13:37 10° S 22:21:23 27° SE 22:29:18 10° ENE visible
29 Jan 9.5 21:48:58 10° S 21:56:19 24° SE 22:03:49 10° ENE visible
30 Jan 9.5 21:24:23 10° S 21:31:15 22° SE 21:38:16 10° E visible
30 Jan 8.0 23:24:58 10° SW 23:34:47 72° SE 23:44:53 10° ENE visible
31 Jan 9.6 20:59:53 10° SSE 21:06:13 19° SE 21:12:39 10° E visible
31 Jan 8.0 22:59:54 10° SW 23:09:37 67° SE 23:19:38 10° ENE visible
01 Feb 9.6 20:35:31 10° SSE 20:41:10 17° ESE 20:46:56 10° E visible
01 Feb 8.1 22:34:50 10° SW 22:44:27 62° SE 22:54:22 10° ENE visible
02 Feb 9.6 20:11:18 10° SSE 20:16:09 15° ESE 20:21:04 10° E visible
02 Feb 8.1 22:09:49 10° SW 22:19:18 58° SE 22:29:06 10° ENE visible
03 Feb 9.6 19:47:21 10° SE 19:51:08 13° ESE 19:54:57 10° E visible
03 Feb 8.2 21:44:51 10° SSW 21:54:10 54° SE 22:03:50 10° ENE visible
04 Feb 9.7 19:24:07 10° SE 19:26:07 11° ESE 19:28:13 10° ESE visible
04 Feb 8.2 21:22:14 20° SSW 21:29:02 50° SE 21:38:32 10° ENE visible
04 Feb 7.7 23:23:46 10° WSW 23:33:40 73° NNW 23:43:51 10° ENE visible
05 Feb 8.3 20:59:21 29° S 21:03:55 46° SE 21:13:14 10° ENE visible
05 Feb 7.6 22:58:33 10° WSW 23:08:24 76° NNW 23:18:36 10° ENE visible
